Lid_Strength_Index
-1 -1 -1 -1 -1 -1 -1 -1 -1 -1 -1 -1 -1 -1 -1 -1 -1 -1 -1 -1 -1 -1 -1 -1 -1 -1 -1 -1 -1 -1 -1 -1 -1
-1 -1 -1 -1 -1 -1 -1 -1 -1 -1 -1 -1 -1 -1 -1 -1 -1 -1 -1 -1 -1 -1 -1 -1 -1 -1 -1 -1 -2 -1 -1 -1 -1
-1 -1 -1 -1 -1 -1 -1 -1 -1 -1 -1 -1 -1 -1 -1 -1 -1 -1 -1 -1 -1 -1 -1 -1 -1 -1 -1 -1 -1 -2 -1 -1 -1
-1 -1 -1 -1 -1 -1 -1 -1 -1 -1 -1 -1 -1 -1 -1 -1 -1 -1 -1 -1 -1 -1 -1 -1 -1 -1 -1 -1 -1 -1 -2 -1 -1
-1 -1 -2 -2 -1 -1 -1 -1 -1 -1 -1 -1 -1 -1 -1 -1 -1 -1 -1 -1 -1 -1 -1 -1 -1 -1 -1 -1 -1 -1 -1 -2 -1
-0 0 0 -0 -1 -1 -1 -1 -1 -0 -1 -1 -1 -1 -1 -1 -1 -1 -1 -1 -1 -1 -1 -1 -1 -1 -1 -1 -1 -1 -1 -2 -2
1 2 2 1 1 -0 -1 -1 -1 -0 -1 -1 -1 -1 -1 -1 -1 -1 -1 -1 -1 -1 -1 -1 -1 -1 -1 -1 -1 -1 -1 -1 -1
1 1 1 0 1 -1 -1 -1 -1 -0 0 0 -0 -0 -1 -1 -1 -1 -1 -1 -1 -1 -1 -1 -1 -1 -1 -1 -1 -1 -1 -1 0
2 2 2 2 1 1 0 -0 0 -0 1 0 1 0 0 -0 -1 2 -0 -1 -1 -1 -1 -1 -1 -1 -1 -1 -0 0 0 1 -0
3 3 3 3 2 2 2 1 1 0 -0 -0 0 1 3 3 3 3 2 1 -1 -1 -1 -1 -1 -1 -1 -1 -1 -1 -1 -0 0
4 4 4 4 4 3 3 2 1 1 -0 0 1 2 3 4 4 4 4 3 1 -0 -2 -2 -1 -1 -1 -1 -1 -1 -1 0 1
5 5 5 5 4 4 3 2 1 1 1 1 1 1 1 2 3 5 4 4 4 2 0 -1 -2 -1 -1 -1 -1 -1 -0 0 0
6 6 6 5 5 4 3 2 2 2 2 1 1 1 1 2 2 3 3 4 4 4 2 2 1 -0 -2 -2 -1 -1 -1 -0 0
7 7 7 6 5 5 4 3 2 2 2 2 2 2 2 2 2 3 4 4 4 4 4 4 3 2 1 -1 -2 -2 -1 -1 -1
7 7 7 7 6 6 5 4 3 3 3 3 3 3 2 3 3 3 3 4 4 4 5 4 5 3 2 0 -1 -2 -2 -2 -1
8 8 8 7 7 7 7 6 6 5 3 2 3 3 3 4 4 4 4 4 4 4 4 4 5 5 3 2 1 -1 -2 -2 -2
9 9 9 8 8 8 7 6 7 7 6 5 4 5 4 3 4 4 5 5 5 5 5 5 4 4 5 4 2 1 -1 -2 -2
9 9 9 9 8 8 8 7 7 7 7 6 5 6 6 6 4 6 6 6 6 6 6 6 6 5 5 5 4 2 -0 -1 -2
10 10 9 9 9 9 9 8 8 7 7 7 6 6 6 7 7 5 6 6 7 7 7 6 7 6 5 6 5 3 1 -1 -1
10 10 10 10 9 9 9 9 9 8 8 8 7 7 6 6 7 8 7 6 6 7 7 7 7 7 7 7 6 4 2 1 0